Location: Coupvray
(48.8929°N, 2.7967°E)
Time: 10:47:54
(UTC+00:00)

Cosmos 540 Rocket - Pass Details

Date: 14 July 2020
Orbit: 740 x 753 km, 74.1° (Epoch: 06 August)

Event Time Altitude Azimuth Distance (km) Brightness Sun altitude
Rises 02:49:23 0° 339° (NNW) 3,199 7.1 -9.5°
Reaches altitude 10° 02:51:47 10° 343° (NNW) 2,273 6.4 -9.2°
Maximum altitude 02:56:52 58° 63° (ENE) 871 4.2 -8.7°
Drops below altitude 10° 03:01:56 10° 143° (SE) 2,267 5.9 -8.1°
Sets 03:04:20 0° 147° (SSE) 3,189 6.6 -7.8°
